Regional Weather Roundup
Issued by NWS Charleston, WV

Home | Current Version | Previous Version | Graphics & Text | Print | Product List | Glossary On
Versions: 1 2 3 4 5 6 7 8 9 10 11 12 13 14 15 16 17 18 19 20 21 22 23 24 25 26 27 28 29 30 31 32 33 34 35
000
ASUS41 KRLX 230610
RWRRLX
West Virginia Regional Weather Roundup
National Weather Service Charleston WV
200 AM EDT THU OCT 23 2014

Note: "fair" indicates few or no clouds below 12,000 feet with no
significant weather and/or obstructions to visibility.

WVZ003-230700-
Northern Panhandle of West Virginia

CITY           SKY/WX    TMP DP  RH WIND       PRES   REMARKS
WHEELING       CLOUDY    43  40  89 W6        30.15F
$$

WVZ009-230700-
Northwest West Virginia

CITY           SKY/WX    TMP DP  RH WIND       PRES   REMARKS
PARKERSBURG    CLOUDY    47  41  80 W3        30.22S
$$

WVZ006-230700-
Western West Virginia

CITY           SKY/WX    TMP DP  RH WIND       PRES   REMARKS
HUNTINGTON     CLOUDY    48  40  73 NW3       30.21S
$$

WVZ015-230700-
West Central West Virginia

CITY           SKY/WX    TMP DP  RH WIND       PRES   REMARKS
CHARLESTON     CLOUDY    48  42  80 NW7       30.19S
$$

WVZ022-031-230700-
North Central West Virginia

CITY           SKY/WX    TMP DP  RH WIND       PRES   REMARKS
CLARKSBURG     CLOUDY    47  41  80 NW6       30.14F
MORGANTOWN     CLOUDY    48  40  73 N5        30.14F
$$

WVZ025-035-042-045-230700-
Southern West Virginia

CITY           SKY/WX    TMP DP  RH WIND       PRES   REMARKS
BECKLEY        CLOUDY    42  39  89 NW7       30.14F
LOGAN          CLOUDY    45  43  93 N3        30.18S
BLUEFIELD      CLOUDY    43  38  82 N8        30.14F
LEWISBURG      CLOUDY    45  39  78 NW3       30.12S
$$

WVZ047-230700-
Northern Mountains of West Virginia

CITY           SKY/WX    TMP DP  RH WIND       PRES   REMARKS
ELKINS         CLOUDY    43  42  97 N6        30.13F
$$

WVZ052-230700-
Eastern Panhandle of West Virginia

CITY           SKY/WX    TMP DP  RH WIND       PRES   REMARKS
MARTINSBURG    PTCLDY    50  39  66 NW9G21    29.98F
PETERSBURG     CLOUDY    51  38  62 NW13      30.08F
$$



USA.gov is the U.S. government's official web portal to all federal, state and local government web resources and services.